EN

Hourly Weather Alvaro Obregon

Today, 28 January, Thursday

Time Temperature Precipitation Wind Pressure Humidity
00:00 +26°C° 0 mm 1 mps 759 mmHg 75%
01:00 +26°C° 0 mm 1 mps 759 mmHg 75%
02:00 +26°C° 0 mm 1 mps 759 mmHg 74%
03:00 +26°C° 0 mm 1 mps 759 mmHg 73%
04:00 +25°C° 0 mm 1 mps 759 mmHg 71%
05:00 +25°C° 0 mm 1 mps 759 mmHg 70%
06:00 +25°C° 0 mm 1 mps 759 mmHg 68%
07:00 +27°C° 0 mm 1 mps 759 mmHg 63%
08:00 +29°C° 0 mm 1 mps 760 mmHg 59%
09:00 +31°C° 0 mm 2 mps 760 mmHg 54%
10:00 +32°C° 0 mm 2 mps 760 mmHg 51%
11:00 +34°C° 0 mm 2 mps 759 mmHg 48%
12:00 +36°C° 0 mm 3 mps 759 mmHg 45%
13:00 +36°C° 0 mm 3 mps 758 mmHg 47%
14:00 +35°C° 0 mm 4 mps 758 mmHg 49%
15:00 +35°C° 0 mm 4 mps 757 mmHg 50%
16:00 +33°C° 0 mm 3 mps 757 mmHg 57%
17:00 +31°C° 0 mm 2 mps 757 mmHg 64%
18:00 +29°C° 0 mm 1 mps 757 mmHg 70%
19:00 +28°C° 0 mm 1 mps 758 mmHg 70%
20:00 +28°C° 0 mm 1 mps 758 mmHg 71%
21:00 +27°C° 0 mm 1 mps 759 mmHg 71%
22:00 +27°C° 0 mm 2 mps 759 mmHg 68%
23:00 +26°C° 0 mm 2 mps 759 mmHg 66%

Tomorrow, 29 January, Friday

Time Temperature Precipitation Wind Pressure Humidity
00:00 +26°C° 0 mm 2 mps 759 mmHg 64%
01:00 +26°C° 0 mm 2 mps 758 mmHg 63%
02:00 +26°C° 0 mm 1 mps 758 mmHg 63%
03:00 +25°C° 0 mm 1 mps 758 mmHg 62%
04:00 +25°C° 0 mm 1 mps 758 mmHg 63%
05:00 +25°C° 0 mm 1 mps 758 mmHg 64%
06:00 +25°C° 0 mm 1 mps 758 mmHg 64%
07:00 +27°C° 0 mm 1 mps 759 mmHg 59%
08:00 +29°C° 0 mm 1 mps 759 mmHg 54%
09:00 +31°C° 0 mm 1 mps 759 mmHg 49%
10:00 +32°C° 0 mm 1 mps 759 mmHg 46%
11:00 +34°C° 0 mm 2 mps 759 mmHg 43%
12:00 +35°C° 0 mm 3 mps 758 mmHg 40%
13:00 +35°C° 0 mm 3 mps 757 mmHg 43%
14:00 +35°C° 0 mm 4 mps 757 mmHg 46%
15:00 +35°C° 0 mm 4 mps 756 mmHg 48%
16:00 +33°C° 0 mm 3 mps 756 mmHg 56%
17:00 +30°C° 0 mm 3 mps 756 mmHg 64%
18:00 +29°C° 0 mm 2 mps 757 mmHg 71%
19:00 +28°C° 0 mm 2 mps 757 mmHg 69%
20:00 +27°C° 0 mm 1 mps 758 mmHg 68%
21:00 +26°C° 0 mm 1 mps 758 mmHg 66%
22:00 +26°C° 0 mm 2 mps 758 mmHg 61%
23:00 +26°C° 0 mm 2 mps 758 mmHg 55%

Day after tomorrow, 30 January, Saturday

Time Temperature Precipitation Wind Pressure Humidity
00:00 +25°C° 0 mm 2 mps 758 mmHg 50%
01:00 +25°C° 0 mm 2 mps 758 mmHg 49%
02:00 +25°C° 0 mm 2 mps 757 mmHg 48%
03:00 +24°C° 0 mm 2 mps 757 mmHg 47%
04:00 +24°C° 0 mm 2 mps 757 mmHg 47%
05:00 +24°C° 0 mm 2 mps 757 mmHg 47%
06:00 +24°C° 0 mm 2 mps 758 mmHg 46%
07:00 +26°C° 0 mm 1 mps 758 mmHg 43%
08:00 +28°C° 0 mm 1 mps 758 mmHg 39%
09:00 +31°C° 0 mm 1 mps 758 mmHg 36%
10:00 +32°C° 0 mm 2 mps 758 mmHg 36%
11:00 +34°C° 0 mm 2 mps 757 mmHg 36%
12:00 +35°C° 0 mm 3 mps 757 mmHg 36%
13:00 +35°C° 0 mm 3 mps 756 mmHg 39%
14:00 +35°C° 0 mm 4 mps 756 mmHg 42%
15:00 +34°C° 0 mm 4 mps 755 mmHg 45%
16:00 +33°C° 0 mm 3 mps 755 mmHg 53%
17:00 +30°C° 0 mm 2 mps 755 mmHg 61%
18:00 +28°C° 0 mm 2 mps 755 mmHg 68%
19:00 +27°C° 0 mm 1 mps 756 mmHg 70%
20:00 +27°C° 0 mm 1 mps 757 mmHg 71%
21:00 +26°C° 0 mm 1 mps 757 mmHg 72%
22:00 +26°C° 0 mm 1 mps 757 mmHg 70%
23:00 +26°C° 0 mm 1 mps 757 mmHg 68%

31 January, Sunday

Time Temperature Precipitation Wind Pressure Humidity
00:00 +25°C° 0 mm 2 mps 757 mmHg 66%
01:00 +25°C° 0 mm 2 mps 757 mmHg 66%
02:00 +25°C° 0 mm 2 mps 757 mmHg 65%
03:00 +25°C° 0 mm 2 mps 757 mmHg 64%
04:00 +25°C° 0 mm 2 mps 757 mmHg 64%
05:00 +25°C° 0 mm 2 mps 757 mmHg 64%
06:00 +25°C° 0 mm 2 mps 757 mmHg 63%
07:00 +27°C° 0 mm 2 mps 757 mmHg 59%
08:00 +29°C° 0 mm 2 mps 758 mmHg 54%
09:00 +31°C° 0 mm 1 mps 758 mmHg 49%
10:00 +32°C° 0 mm 2 mps 757 mmHg 46%
11:00 +35°C° 0 mm 2 mps 757 mmHg 43%
12:00 +36°C° 0 mm 3 mps 756 mmHg 40%
13:00 +36°C° 0 mm 3 mps 756 mmHg 42%
14:00 +36°C° 0 mm 4 mps 755 mmHg 43%
15:00 +36°C° 0 mm 4 mps 754 mmHg 45%
16:00 +34°C° 0 mm 3 mps 755 mmHg 52%
17:00 +31°C° 0 mm 3 mps 755 mmHg 59%
18:00 +29°C° 0 mm 2 mps 756 mmHg 67%
19:00 +28°C° 0 mm 2 mps 756 mmHg 69%
20:00 +27°C° 0 mm 1 mps 757 mmHg 72%
21:00 +27°C° 0 mm 1 mps 758 mmHg 75%
22:00 +26°C° 0 mm 1 mps 758 mmHg 74%
23:00 +26°C° 0 mm 1 mps 758 mmHg 72%

1 February, Monday

Time Temperature Precipitation Wind Pressure Humidity
00:00 +26°C° 0 mm 1 mps 758 mmHg 71%
01:00 +26°C° 0 mm 1 mps 758 mmHg 69%
02:00 +26°C° 0 mm 1 mps 757 mmHg 68%
03:00 +25°C° 0 mm 1 mps 757 mmHg 66%
04:00 +25°C° 0 mm 1 mps 757 mmHg 65%
05:00 +25°C° 0 mm 1 mps 757 mmHg 64%
06:00 +25°C° 0 mm 2 mps 757 mmHg 63%
07:00 +27°C° 0 mm 1 mps 758 mmHg 57%
08:00 +29°C° 0 mm 1 mps 758 mmHg 51%
09:00 +32°C° 0 mm 1 mps 758 mmHg 45%
10:00 +34°C° 0 mm 2 mps 758 mmHg 42%
11:00 +35°C° 0 mm 2 mps 758 mmHg 40%
12:00 +37°C° 0 mm 3 mps 758 mmHg 38%
13:00 +36°C° 0 mm 3 mps 757 mmHg 42%
14:00 +35°C° 0 mm 4 mps 756 mmHg 46%
15:00 +35°C° 0 mm 4 mps 756 mmHg 50%
16:00 +33°C° 0.1 mm 3 mps 756 mmHg 57%
17:00 +31°C° 0.1 mm 2 mps 756 mmHg 63%
18:00 +29°C° 0.1 mm 2 mps 756 mmHg 70%
19:00 +28°C° 0 mm 2 mps 757 mmHg 72%
20:00 +27°C° 0 mm 2 mps 758 mmHg 73%
21:00 +26°C° 0 mm 2 mps 758 mmHg 75%
22:00 +26°C° 0 mm 2 mps 758 mmHg 72%
23:00 +26°C° 0 mm 2 mps 758 mmHg 68%

2 February, Tuesday

Time Temperature Precipitation Wind Pressure Humidity
00:00 +26°C° 0 mm 2 mps 758 mmHg 64%
01:00 +26°C° 0 mm 2 mps 757 mmHg 62%
02:00 +26°C° 0 mm 2 mps 757 mmHg 60%
03:00 +26°C° 0 mm 2 mps 757 mmHg 57%
04:00 +25°C° 0 mm 2 mps 757 mmHg 57%
05:00 +25°C° 0 mm 2 mps 757 mmHg 56%
06:00 +25°C° 0 mm 2 mps 757 mmHg 55%
07:00 +27°C° 0 mm 1 mps 758 mmHg 50%
08:00 +29°C° 0 mm 1 mps 758 mmHg 45%
09:00 +31°C° 0 mm 1 mps 759 mmHg 40%
10:00 +34°C° 0 mm 2 mps 758 mmHg 39%
11:00 +35°C° 0 mm 2 mps 758 mmHg 38%
12:00 +36°C° 0 mm 3 mps 757 mmHg 37%
13:00 +36°C° 0 mm 4 mps 756 mmHg 39%
14:00 +35°C° 0 mm 4 mps 756 mmHg 41%
15:00 +35°C° 0 mm 4 mps 755 mmHg 44%
16:00 +33°C° 0 mm 3 mps 755 mmHg 50%
17:00 +30°C° 0 mm 3 mps 755 mmHg 56%
18:00 +29°C° 0 mm 2 mps 756 mmHg 62%
19:00 +28°C° 0 mm 2 mps 756 mmHg 64%
20:00 +27°C° 0 mm 1 mps 757 mmHg 65%
21:00 +26°C° 0 mm 1 mps 758 mmHg 67%
22:00 +26°C° 0 mm 1 mps 758 mmHg 66%
23:00 +26°C° 0 mm 1 mps 758 mmHg 65%
Show more